Location: Big Rock Campground
(44.0487°N, 71.5606°W)
Time: 01:43:11
(UTC+00:00)

Daily predictions for brighter satellites

Satellite Brightness Start Highest point End
(mag) Time Altitude Azimuth Time Altitude Azimuth Time Altitude Azimuth
BREEZE-M DEB (TANK) 4.0 00:48:52 10° WNW 00:52:34 78° N 01:03:06 10° E
Cosmos 1066 Rocket 4.4 00:56:13 10° S 01:02:04 87° W 01:07:52 10° N
Cosmos 2251 Rocket 4.0 00:57:13 10° SSW 01:02:28 68° WNW 01:07:48 10° NNE
Cosmos 2360 Rocket 4.0 01:00:31 10° N 01:04:37 20° NE 01:08:43 10° E
Cosmos 1842 3.1 01:02:53 10° S 01:06:30 65° E 01:10:08 10° NNE
Centaur D AC-29 4.0 01:01:59 10° SW 01:07:16 27° SSE 01:25:38 10° ESE
Cosmos 407 Rocket 4.4 01:02:55 10° SW 01:08:02 54° WNW 01:13:07 10° NNE
Cosmos 540 Rocket 3.6 01:03:35 10° NNW 01:08:44 65° ENE 01:13:49 10° SSE
BREEZE-M DEB (TANK) 2.0 01:10:11 10° SW 01:12:24 61° SSE 01:15:19 10° ENE
BREEZE-M DEB (TANK) 4.0 00:58:51 10° WSW 01:13:33 73° NW 01:17:13 10° NE
MOS 1-B Rocket 4.5 01:08:41 10° S 01:14:47 60° WSW 01:20:24 10° NNW
SL-16 R/B 2.9 01:10:31 10° NNW 01:15:55 42° ENE 01:21:15 10° SE
RESURS DK-1 4.0 01:12:56 10° N 01:16:14 23° NE 01:19:30 10° ESE
Cosmos 2333 Rocket 3.8 01:13:03 10° N 01:17:33 23° NE 01:22:02 10° E
Cosmos 2082 Rocket 2.9 01:12:42 10° SW 01:18:20 60° WNW 01:24:00 10° NNE
Cosmos 2369 4.2 01:14:07 10° NNW 01:19:47 63° WSW 01:25:25 10° S
Cosmos 1954 Rocket 4.0 01:19:24 10° SSW 01:24:41 87° ESE 01:29:59 10° NNE
Atlas Centaur 2 3.9 01:18:23 10° WSW 01:25:11 31° S 01:32:06 10° SE
MOS 1 Rocket 4.5 01:20:25 10° SE 01:25:16 36° ENE 01:30:04 10° N
Okean-O 2.8 01:22:35 10° S 01:26:59 72° WSW 01:31:24 10° NNW
SeaSat 1 2.9 01:22:40 10° SE 01:27:25 52° ENE 01:32:13 10° NNW
EXPRESS MD2 3.1 01:24:37 10° WSW 01:27:55 56° NNW 01:30:13 10° NE
Cosmos 1515 Rocket 4.1 01:26:00 10° SSW 01:30:16 62° W 01:34:35 10° N
Cosmos 1707 2.7 01:28:05 10° S 01:31:41 79° W 01:35:18 10° N
Cosmos 676 Rocket 4.1 01:30:22 10° SSW 01:35:41 88° ESE 01:41:02 10° NNE
USA 245 3.6 01:32:54 13° SE 01:35:48 50° ENE 01:39:58 10° N
CZ-4C R/B 3.5 01:31:49 10° N 01:35:59 82° WNW 01:40:05 10° SSW
IRS-1A Rocket 4.2 01:32:02 10° SSE 01:37:32 79° ENE 01:43:03 10° NNW
SPOT 5 2.7 01:35:33 10° S 01:39:51 78° WSW 01:44:15 10° NNW
Cosmos 1553 Rocket 4.2 01:34:36 10° NNW 01:40:46 75° W 01:47:01 10° S
MetOp-B 4.2 01:35:43 10° SSE 01:41:04 80° WSW 01:46:28 10° NNW
S3M 4.1 01:37:53 10° N 01:44:13 64° E 01:49:59 12° SSE
Cosmos 2228 Rocket 4.0 01:41:13 14° SSE 01:44:37 33° E 01:48:43 10° NNE
Okean O Rocket 3.7 01:43:54 10° SSW 01:47:27 24° W 01:50:59 10° NW
Tiangong -0.6 01:46:42 10° WSW 01:49:14 22° SSW 01:50:36 17° SSE
Cosmos 1869 Rocket 3.6 01:44:48 10° N 01:49:16 80° E 01:53:12 13° SSE
SL-4 R/B 4.0 01:48:24 10° WNW 01:51:44 28° N 01:55:15 10° NE
Cosmos 1356 Rocket 4.1 01:50:09 16° SSE 01:52:58 36° E 01:56:50 10° NNE
Cosmos 2266 Rocket 4.0 01:47:53 10° S 01:54:10 77° E 02:00:35 10° N
Meteor 1-22 Rocket 4.3 01:48:48 10° N 01:54:28 75° E 01:59:33 14° SSE
ERS-1 Rocket 3.0 01:50:48 12° SSE 01:55:24 89° W 02:00:28 10° NNW
Cosmos 1655 Rocket 4.3 01:49:34 10° SSE 01:55:42 55° E 02:01:56 10° NNE
Cosmos 1980 Rocket 4.1 01:52:37 10° NW 01:57:01 24° WSW 02:01:23 10° SSW
Cosmos 1400 Rocket 2.6 01:53:44 10° S 01:57:37 76° E 02:01:28 10° NNE
Cosmos 841 Rocket 3.5 01:52:38 10° NNW 01:57:56 77° ENE 02:01:57 18° SSE
Cosmos 2322 Rocket 2.5 01:53:22 10° NNW 01:58:58 57° ENE 02:03:10 18° SE
Timation 1 Rocket 4.3 01:55:13 10° SSW 02:01:08 75° ESE 02:07:06 10° NNE
USA 234 3.3 01:56:00 10° NE 02:02:35 89° NW 02:09:07 10° SW
ATLAS CENTAUR R/B 1.0 02:02:37 10° SSW 02:06:00 54° ESE 02:09:29 10° NE
Spot 2 Rocket 3.5 02:02:19 16° SSE 02:06:23 86° ENE 02:11:30 10° NNW
Cosmos 1300 2.8 02:03:58 10° N 02:07:27 50° E 02:09:14 25° SE
Cosmos 1441 Rocket 4.2 02:04:27 10° NNW 02:07:51 39° W 02:11:03 11° SSW
Aureole 3 4.3 02:08:07 22° SE 02:09:54 33° E 02:14:02 10° NNE
Cosmos 2278 4.1 02:05:03 10° NNW 02:10:41 60° WSW 02:15:10 16° S
Meteor 2-10 Rocket 3.6 02:05:51 10° N 02:11:27 79° E 02:15:21 19° SSE
Cosmos 1315 Rocket 4.2 02:14:28 20° ESE 02:15:28 22° E 02:18:35 10° NE
Meteor 1-21 4.4 02:11:46 16° S 02:16:19 59° E 02:22:02 10° NNE
Cosmos 1953 4.0 02:15:24 10° NNE 02:18:13 19° ENE 02:19:31 16° E
Terra 2.2 02:16:12 16° S 02:19:55 60° W 02:24:36 10° NNW
Cosmos 1862 Rocket 3.7 02:18:12 22° SSE 02:20:48 57° E 02:25:09 10° NNE
Cosmos 807 4.4 02:19:52 30° SSE 02:21:13 54° E 02:24:12 10° NNE
Cosmos 2219 Rocket 3.1 02:19:18 10° NNW 02:24:36 38° ENE 02:28:14 18° ESE
Landsat 5 3.4 02:23:30 10° NNE 02:27:30 62° ESE 02:29:45 25° S
Ariane Rocket 3.4 02:27:25 18° S 02:31:08 61° W 02:36:12 10° NNW
Okean 3 3.4 02:32:23 29° SSE 02:34:20 63° E 02:38:28 10° NNE
BlueWalker 3 4.0 02:41:16 14° E 02:41:16 14° E 02:41:58 10° ENE
SL-27 R/B 2.3 02:38:02 29° SW 02:39:12 59° WNW 02:41:57 10° NNE
Cosmos 2315 Rocket 4.2 02:33:42 10° NNW 02:40:04 73° W 02:44:42 20° S
SL-14 R/B 3.8 02:37:34 17° SSW 02:40:21 53° W 02:44:05 10° N
Cosmos 1707 Rocket 3.8 02:38:10 18° SSW 02:41:23 71° W 02:45:50 10° N
COSMOS 2455 4.3 02:41:38 18° ESE 02:42:12 18° ESE 02:46:03 10° ENE
SJ 16-02 1.2 02:40:03 27° S 02:42:16 68° ESE 02:46:35 10° NNE
ATLAS 2AS CENTAUR R/B 2.6 02:39:15 10° NW 02:46:08 86° NE 02:50:04 27° SE
H-2A R/B 4.4 02:46:55 16° E 02:48:37 20° ENE 02:51:42 10° NNE
Cosmos 2360 Rocket 2.2 02:43:35 10° NNW 02:49:17 78° WSW 02:52:15 29° SSE
Cosmos 1346 Rocket 3.1 02:45:52 10° NNW 02:49:39 56° W 02:51:15 31° SSW
Meteor 1-4 Rocket 1.8 02:49:24 67° SSE 02:49:41 78° E 02:52:42 10° NNE
Cosmos 1932 4.4 02:47:17 10° SSW 02:53:37 73° ESE 02:59:54 10° NE
RESURS DK-1 3.4 02:50:18 10° NW 02:54:02 35° WSW 02:55:35 25° SSW
SPOT 3 Rocket 4.5 02:51:36 18° SSW 02:55:03 41° W 02:59:55 10° NNW
ARIANE 5 R/B 3.4 02:53:44 29° ESE 02:55:14 39° ENE 02:59:16 10° N
SL-16 R/B 3.5 02:54:55 10° NW 02:59:49 31° WSW 03:03:14 17° SSW
Cosmos 968 Rocket 3.9 02:57:16 11° SSW 03:02:11 61° WNW 03:07:21 10° NNE
Cosmos 2333 Rocket 2.4 02:56:37 10° NNW 03:02:21 67° WSW 03:05:07 31° S
USA 281 3.5 02:58:49 25° SE 03:02:42 59° ENE 03:09:08 10° NNW
Cosmos 1733 Rocket 3.9 02:59:26 10° NNW 03:03:37 44° W 03:05:49 24° SSW
SeaSat 1 4.2 03:02:21 15° SSW 03:05:06 23° WSW 03:08:56 10° NW
Cosmos 1455 1.9 03:06:29 10° N 03:09:59 67° E 03:10:21 61° ESE
Cosmos 839 Rocket 4.0 03:05:44 10° NNW 03:12:35 88° WSW 03:15:33 33° SSE
Okean 1-7 3.0 03:11:24 37° SSW 03:13:03 79° W 03:17:24 10° N
Cosmos 1814 Rocket 4.1 03:07:55 10° NNW 03:13:12 69° WSW 03:15:23 36° S
Atlas Centaur 2 4.0 03:07:16 10° WSW 03:13:31 24° SSW 03:14:18 23° S
Cosmos 1242 Rocket 2.9 03:15:36 39° NE 03:15:36 39° NE 03:17:35 10° NNE
GP-B 3.2 03:10:39 10° N 03:15:01 61° E 03:16:05 46° SE
Cosmos 1908 Rocket 3.4 03:13:05 10° N 03:17:26 82° E 03:18:33 50° SSE
Cosmos 1782 Rocket 4.1 03:16:01 10° N 03:20:11 44° ENE 03:21:05 38° ESE
GENESIS II 4.0 03:20:55 62° ESE 03:20:55 62° ESE 03:24:23 10° NE
Cosmos 2237 Rocket 4.0 03:19:07 10° N 03:23:38 24° NE 03:27:33 12° E
Cosmos 2322 3.9 03:20:35 10° NNW 03:26:15 65° ENE 03:28:35 35° SE
Cosmos 1745 Rocket 4.1 03:24:05 35° SSE 03:26:45 63° E 03:33:02 10° NNE
Cosmos 2227 Rocket 4.2 03:28:54 12° E 03:29:09 12° E 03:31:18 10° ENE
Cosmos 1408 3.7 03:31:03 26° NE 03:31:03 26° NE 03:32:51 10° NNE
SL-4 R/B 3.6 03:27:37 10° NW 03:31:16 33° NNE 03:35:07 10° E
Cosmos 2208 Rocket 4.3 03:26:44 10° NNW 03:31:51 55° ENE 03:33:39 36° ESE
MINOTAUR 4 R/B 4.1 03:31:28 10° NNE 03:33:49 54° NNE 03:33:49 54° NNE
Nadezhda 1 Rocket 3.9 03:31:01 10° N 03:37:20 81° E 03:39:51 39° SSE
Okean 2 4.3 03:36:15 29° SW 03:37:42 40° WNW 03:41:31 10° N
H-2A R/B 4.2 03:35:56 10° ENE 03:37:37 13° E 03:37:37 13° E
Cosmos 1300 Rocket 3.7 03:34:30 10° N 03:38:45 58° ENE 03:39:27 50° ESE
Cosmos 1386 Rocket 4.5 03:37:50 34° S 03:40:46 88° W 03:47:01 10° N
Cosmos 2322 Rocket 3.9 03:38:16 10° NW 03:42:34 22° W 03:44:58 17° SW
ATLAS CENTAUR R/B 4.0 03:41:43 10° W 03:43:58 16° NW 03:46:16 10° N
CENTAUR R/B 4.1 03:46:31 14° ESE 03:46:32 14° ESE 03:49:43 10° ENE
ALOS 2 3.2 03:45:46 39° ESE 03:46:42 45° ENE 03:50:54 10° N
Cosmos 2297 Rocket 2.9 03:47:55 34° ESE 03:48:40 35° ESE 03:53:45 10° NE
PSLV R/B 4.0 03:45:18 10° N 03:49:17 67° WNW 03:50:01 53° SW
Cosmos 1315 Rocket 4.5 03:49:43 20° WSW 03:51:27 28° WNW 03:54:56 10° NNW
Cosmos 1953 3.5 03:50:43 10° NNW 03:54:05 29° W 03:54:38 28° WSW
Meteor 2-5 Rocket 4.1 03:59:22 41° SE 04:01:01 54° E 04:06:43 10° NNE
Cosmos 1486 Rocket 3.9 04:06:10 52° S 04:07:29 83° ESE 04:12:42 10° NNE
COSMOS 2428 2.7 04:01:55 10° NNW 04:07:37 76° WSW 04:09:13 48° S
Cosmos 2219 Rocket 3.1 04:03:23 10° NW 04:08:27 35° WSW 04:09:56 30° SW
Cosmos 2242 Rocket 3.6 04:10:52 60° SSW 04:11:38 80° W 04:16:14 10° N
Cosmos 371 Rocket 3.1 04:12:01 61° S 04:12:48 79° ESE 04:17:37 10° NNE
BlueWalker 3 2.5 04:15:31 34° W 04:16:51 54° NNW 04:20:31 10° NE
Cosmos 405 Rocket 3.2 04:17:19 10° N 04:20:57 47° ENE 04:20:57 47° ENE
SJ 16-02 4.0 04:18:54 10° W 04:21:06 14° NW 04:23:19 10° NNW
Cosmos 1354 Rocket 4.2 04:21:24 48° SE 04:22:15 53° ESE 04:27:25 10° NNE
Cosmos 2263 Rocket 4.2 04:22:09 12° ESE 04:22:51 13° E 04:25:07 10° ENE
H-2A R/B 3.1 04:22:54 42° WSW 04:23:14 42° W 04:27:20 10° NNW
NOSS 0 Rocket 3.9 04:17:43 10° NNW 04:24:00 83° WSW 04:26:04 45° SSE
Cosmos 1709 Rocket 4.2 04:23:45 38° SSW 04:26:19 69° W 04:32:41 10° N
COSMOS 2455 2.9 04:24:42 35° SW 04:27:23 79° WNW 04:33:28 10° NNE
CZ-4C R/B 1.7 04:28:06 55° SW 04:29:08 85° NW 04:34:38 10° NE
ARIANE 5 R/B 4.3 04:31:12 20° WSW 04:31:46 20° W 04:34:59 10° NW
Cosmos 2360 Rocket 4.5 04:31:15 10° W 04:32:14 10° W 04:33:13 10° WSW
Spot 4 4.4 04:31:54 41° SW 04:32:38 44° W 04:37:14 10° NNW
ATLAS 2AS CENTAUR R/B 4.2 04:31:43 10° WNW 04:36:05 19° WSW 04:37:28 17° WSW
Cosmos 2184 Rocket 4.4 04:37:55 38° SE 04:40:01 53° E 04:46:11 10° NNE
Cosmos 1703 3.8 04:40:37 45° WNW 04:40:37 45° WNW 04:44:09 10° N
USA 281 4.3 04:45:41 25° SW 04:47:30 28° WSW 04:53:04 10° NW
PSLV R/B 3.4 04:45:28 10° N 04:49:41 71° WNW 04:50:04 66° WSW
Okean 1 Rocket 3.6 04:45:58 10° N 04:50:12 48° ENE 04:50:52 44° ESE
Cosmos 1892 2.9 04:50:46 58° NE 04:50:46 58° NE 04:53:46 10° NNE
Cosmos 2098 Rocket 4.1 04:45:11 10° NNW 04:51:46 69° W 04:53:52 44° SSW
Cosmos 2154 Rocket 4.3 04:54:44 39° SSE 04:56:48 58° E 05:02:57 10° NNE
SL-16 R/B 3.3 04:55:30 10° NNW 05:00:49 39° NE 05:04:46 17° ESE
Cosmos 332 Rocket 3.7 05:05:28 61° SSW 05:06:20 89° WNW 05:11:16 10° NNE
Cosmos 2237 Rocket 2.2 05:02:33 10° NNW 05:08:08 62° WSW 05:09:21 50° SSW
Cosmos 990 Rocket 4.1 05:08:21 50° SSE 05:09:15 59° ESE 05:14:18 10° NNE
SL-4 R/B 1.9 05:06:14 10° WNW 05:10:22 84° SW 05:10:26 83° SSW
Cosmos 2227 Rocket 2.1 05:10:41 50° SSW 05:12:17 86° ESE 05:17:59 10° NNE
Cosmos 1975 Rocket 4.4 05:12:51 26° ESE 05:13:38 28° E 05:17:23 10° NNE
H-2A R/B 2.2 05:09:43 10° N 05:13:55 60° WNW 05:14:25 55° WSW
Cosmos 2084 Rocket 3.8 05:18:12 47° W 05:19:04 58° NW 05:23:10 10° NNE
Cosmos 2151 Rocket 4.1 05:16:39 10° NNW 05:20:50 44° W 05:21:05 44° WSW
Cosmos 1980 4.1 05:15:46 10° NW 05:21:09 45° WSW 05:22:05 42° SW
Cosmos 1825 2.7 05:23:12 43° WNW 05:23:12 43° WNW 05:26:09 10° N
ALOS 2 4.5 05:23:09 18° W 05:23:15 18° W 05:26:15 10° NW
GEOS 3 Rocket 3.6 05:18:17 10° NE 05:23:28 80° NW 05:25:12 43° SW
CZ-2D R/B 4.4 05:21:13 10° ENE 05:23:32 13° E 05:25:50 10° ESE
Cosmos 1538 Rocket 4.2 05:20:47 10° NNW 05:25:59 68° ENE 05:28:00 37° SE
Meteor 1-21 Rocket 4.4 05:25:31 42° SSE 05:27:22 66° E 05:33:02 10° NNE
Cosmos 1455 Rocket 3.6 05:23:11 10° N 05:27:32 51° ENE 05:28:40 40° SE
Okean 2 Rocket 3.7 05:23:21 10° NNW 05:27:34 42° W 05:27:55 41° WSW
Cosmos 1174 4.0 05:23:58 10° NW 05:28:34 60° WSW 05:28:34 60° WSW
BREEZE-M DEB (TANK) 2.7 05:25:46 10° WNW 05:32:07 62° NNE 05:33:31 27° E
Cosmos 1610 Rocket 4.5 05:30:09 41° S 05:32:34 84° E 05:38:58 10° N
Cosmos 2297 Rocket 3.3 05:29:40 22° WSW 05:32:39 37° NW 05:37:53 10° NNE
Cosmos 1674 Rocket 4.5 05:32:54 33° W 05:33:36 35° WNW 05:37:38 10° N
Cosmos 2219 3.2 05:33:16 47° S 05:34:53 73° ESE 05:40:30 10° NNE
CENTAUR R/B 2.3 05:33:38 42° SW 05:35:45 90° NW 05:42:42 10° NE
Cosmos 2074 Rocket 4.4 05:38:32 35° SW 05:40:52 53° WNW 05:46:57 10° N
Cosmos 1025 Rocket 3.0 05:40:57 61° SW 05:41:33 72° W 05:45:53 10° N
Aureole 1 Rocket 2.6 05:42:32 67° ESE 05:42:34 67° ESE 05:46:44 10° NNE
Cosmos 1606 4.3 05:41:45 10° NNE 05:44:50 26° ENE 05:45:56 22° ESE
Cosmos 2341 Rocket 4.4 05:42:56 31° SSE 05:45:45 54° E 05:51:48 10° NNE
ADEOS II 4.4 05:47:06 10° NE 05:49:59 15° E 05:52:51 10° ESE
TIMED 4.4 05:51:00 62° S 05:51:42 85° ESE 05:56:02 10° NNE
CRYOSAT 2 4.3 05:49:25 10° N 05:54:20 80° E 05:55:49 45° S
BlueWalker 3 4.4 05:52:39 10° WNW 05:55:37 21° N 05:58:35 10° NE
Helios 1A Rocket 2.6 05:58:05 63° SSE 05:58:39 83° ENE 06:02:27 10° NNW
Cosmos 1937 Rocket 3.8 05:58:26 37° SSE 06:00:13 56° ESE 06:05:21 10° NNE
Cosmos 1461 3.2 06:00:58 44° SE 06:01:14 45° ESE 06:04:59 10° NE
Resurs 1-4 Rocket 3.4 05:58:54 10° NE 06:03:33 31° E 06:06:19 19° SE
MOZ.5/SAFIR/RUBIN 5/SL-8 4.1 06:01:24 30° SE 06:03:35 62° ENE 06:08:10 10° N
Cosmos 1898 Rocket 3.4 06:01:58 44° S 06:03:39 82° ESE 06:08:50 10° NNE
Cosmos 2263 Rocket 2.1 06:03:48 41° SSW 06:05:53 90° ESE 06:11:30 10° NNE
Elektron 3 4.5 06:12:46 10° NW 06:17:29 49° WSW 06:17:29 49° WSW
CZ-4C R/B 4.3 06:14:51 10° WNW 06:18:34 20° NNW 06:22:54 10° NNE
SL-19 R/B 4.5 06:17:03 10° N 06:19:43 38° WNW 06:19:43 38° WNW
NOSS 3-2 (A) 3.4 06:18:59 31° WSW 06:21:30 66° NW 06:27:37 10° NNE
Cosmos 2218 Rocket 4.0 06:18:48 30° S 06:22:05 80° E 06:28:17 10° N
Orbus 7S? 4.4 06:21:25 10° NNW 06:24:05 39° NE 06:28:05 10° ESE
Cosmos 1844 Rocket 4.2 06:22:41 16° SSE 06:25:53 27° ESE 06:30:30 10° NE
NOSS 3-2 (C) 3.2 06:25:20 35° S 06:27:29 66° ESE 06:33:27 10° NE
Cosmos 2366 rocket 4.0 06:25:41 30° S 06:29:00 88° W 06:35:18 10° N
Cosmos 1869 3.0 06:26:47 10° N 06:30:29 79° W 06:31:19 51° S
ALOS 4.5 06:28:08 10° NE 06:31:17 18° E 06:34:24 10° SE
USA 267 4.3 06:27:43 10° ENE 06:33:23 31° SE 06:36:41 20° S
Cosmos 1680 Rocket 3.4 06:31:04 10° NNW 06:36:17 89° ENE 06:40:02 19° SSE
Cosmos 1818 3.5 06:32:49 10° NW 06:38:19 86° WSW 06:43:46 10° SSE
Cosmos 2112 Rocket 4.0 06:33:18 10° NNW 06:38:32 79° ENE 06:42:52 15° SSE
MSX 3.9 06:33:23 10° NNE 06:39:08 72° ESE 06:42:31 26° S
Cosmos 1544 Rocket 3.5 06:34:44 10° NNW 06:39:11 75° W 06:41:02 34° S
Cosmos 1437 Rocket 3.7 06:37:53 24° SSE 06:39:39 39° E 06:43:13 10° NNE
Cosmos 2228 2.9 06:38:56 10° N 06:43:17 88° E 06:45:26 29° S
SL-16 R/B 2.9 06:39:46 10° NW 06:44:50 34° WSW 06:46:35 28° SW
BREEZE-M DEB (TANK) 1.7 06:49:10 52° S 06:49:10 52° S 06:52:31 10° SE
Cosmos 1603 4.4 06:44:11 10° NNW 06:49:51 56° ENE 06:55:28 10° SE
Cosmos 1975 Rocket 4.4 06:49:56 22° WSW 06:51:23 26° WNW 06:55:05 10° NNW
SL-16 R/B 3.4 06:46:41 10° SE 06:52:39 49° ENE 06:58:38 10° N
Cosmos 2082 4.5 06:51:06 22° WSW 06:54:23 42° WNW 06:59:43 10° NNE
IDEFIX/ARIANE 42P 2.6 06:49:18 10° N 06:54:32 73° WNW 06:57:28 27° SSW
Cosmos 2227 Rocket 4.2 06:53:15 10° W 06:57:05 18° NW 07:00:56 10° N
H-2A R/B 3.4 06:54:14 10° N 06:58:12 68° WNW 06:59:56 32° SSW
CZ-2C R/B 2.5 06:55:47 19° S 06:59:39 77° WSW 07:05:04 10° NNW
Cosmos 1943 3.1 06:54:13 10° NNW 06:59:51 81° WSW 07:05:27 10° SSE
CZ-2C R/B 3.1 06:55:00 10° NNE 07:00:27 78° ESE 07:03:52 22° S
CZ-2D R/B 2.1 06:58:52 10° NNE 07:04:14 84° WNW 07:07:38 23° SSW
FENGYUN 3A 3.8 07:01:55 10° NNE 07:07:18 69° ESE 07:11:23 18° S
Cosmos 1606 Rocket 3.8 07:10:17 10° N 07:14:44 69° E 07:19:07 10° SSE
Cosmos 921 Rocket 3.3 07:11:34 10° NNW 07:15:48 67° ENE 07:19:56 10° SSE
ASTEX 1 3.6 07:12:59 10° SSE 07:17:49 72° E 07:22:40 10° N
GRACE-FO 1 4.4 07:17:07 25° S 07:19:02 71° W 07:22:35 10° N
Cosmos 1606 4.2 07:16:47 10° NW 07:19:19 18° W 07:19:53 18° W
GRACE-FO 2 4.4 07:17:32 25° S 07:19:28 70° W 07:23:01 10° N
Cosmos 1727 Rocket 4.1 07:13:40 10° NNW 07:19:57 68° W 07:25:41 13° S
Cosmos 1536 Rocket 4.0 07:18:23 23° SW 07:20:48 46° WNW 07:25:06 10° N
NPP 4.2 07:16:05 10° N 07:21:12 45° WNW 07:24:46 19° SW
Cosmos 2239 Rocket 4.4 07:16:21 16° S 07:21:22 88° W 07:27:32 10° N
Cosmos 1867 3.6 07:20:35 21° SSW 07:24:22 87° ESE 07:29:53 10° NE
CENTAUR R/B 4.3 07:22:21 10° W 07:27:29 26° NNW 07:33:34 10° NNE
Cosmos 494 Rocket 3.9 07:24:01 10° NNW 07:29:17 83° WSW 07:34:32 10° SSE
ADEOS II 2.1 07:24:54 10° N 07:30:09 74° WNW 07:34:19 16° SSW
Cosmos 1726 Rocket 3.7 07:25:48 10° N 07:30:15 75° E 07:34:39 10° SSE
USA 238 DEB 3.6 07:28:50 18° SW 07:33:38 83° NW 07:40:23 10° NE
USA 238 3.6 07:28:52 18° SW 07:33:40 84° NW 07:40:26 10° NE
Cosmos 1000 Rocket 4.5 07:27:54 10° NNW 07:34:11 74° W 07:40:22 10° S
BlueWalker 3 4.4 07:31:41 10° NW 07:34:43 23° NNE 07:37:45 10° ENE
Cosmos 1812 3.4 07:32:52 10° N 07:36:22 50° E 07:39:49 10° SSE
Cosmos 1844 3.8 07:33:31 16° SSW 07:38:13 89° ESE 07:44:04 10° NNE
Cosmos 2058 3.7 07:37:01 10° SSE 07:40:54 48° E 07:44:51 10° NNE
Iridium 2 2.6 07:39:24 18° S 07:41:03 78° E 07:43:32 10° N
USA 81 4.4 07:35:56 10° N 07:41:13 68° E 07:46:26 10° SSE
Resurs 1-4 Rocket 2.9 07:38:33 10° N 07:43:21 37° WNW 07:47:22 14° SW
SAR-Lupe-4 3.7 07:41:31 10° NNE 07:45:05 74° ESE 07:48:22 12° S
Iridium 4 Rocket 3.8 07:42:34 10° N 07:46:58 57° E 07:51:42 10° SSE
ATLAS 5 CENTAUR R/B 3.4 07:46:43 10° SE 07:48:26 14° ESE 07:50:12 10° E
Cosmos 2263 Rocket 4.2 07:47:00 10° W 07:50:35 17° NW 07:54:12 10° N
Cosmos 724 4.4 07:47:44 10° NNW 07:53:35 79° ENE 07:59:26 10° SE
UNK 3.7 07:50:00 10° SSE 07:54:36 84° WSW 07:59:13 10° NNW
AQUA 4.2 07:51:16 10° N 07:55:49 50° WNW 08:00:01 12° SW
Meteor 1-28 Rocket 4.0 08:01:25 11° SSW 08:04:19 29° W 08:07:28 10° NW
Cosmos 2058 Rocket 3.0 08:03:53 10° N 08:08:20 82° W 08:12:43 10° S
ALOS 2.6 08:04:17 10° N 08:08:45 50° WNW 08:13:10 10° SW
Cosmos 1844 Rocket 3.2 08:04:20 11° SW 08:09:29 46° WNW 08:14:52 10° NNE
Cosmos 1892 Rocket 3.9 08:05:38 10° SSW 08:09:52 49° WNW 08:14:11 10° N
METEOR-M 4.3 08:04:51 10° NNE 08:10:13 78° ESE 08:15:33 10° S
Cosmos 1607 4.0 08:07:55 10° NW 08:14:12 61° WSW 08:20:21 10° SSE
Cosmos 1544 2.2 08:12:13 10° S 08:14:50 87° E 08:17:28 10° N
Cosmos 2298 Rocket 4.4 08:10:05 10° S 08:15:20 66° ESE 08:20:38 10° NNE
USA 267 3.4 08:10:14 10° NE 08:16:48 80° NW 08:23:19 10° WSW
NOSS 2-2 (C) 4.0 08:14:16 10° S 08:17:23 36° ESE 08:20:16 10° NE
Alouette 2 Rocket 3.9 08:15:00 10° SSW 08:19:39 47° WNW 08:23:16 10° N
Cosmos 1605 Rocket 4.0 08:14:39 10° S 08:20:52 83° W 08:27:02 10° N
NOSS 2-2 (D) 4.5 08:23:06 10° S 08:26:05 27° ESE 08:28:49 10° ENE
CZ-4 R/B 4.0 08:24:12 10° N 08:29:07 78° WNW 08:34:05 10° SSW
H-2A R/B 3.7 08:26:26 10° NNE 08:31:16 34° E 08:35:57 10° SSE
Cosmos 2278 Rocket 4.2 08:27:20 10° SSE 08:31:52 25° ESE 08:36:25 10° NE
